Location: *
(49.9853°N, 3.5569°E)
Time: 00:27:58
(UTC+00:00)

Meteor 1-22 Rocket - Pass Details

Date: 22 September 2019
Orbit: 786 x 942 km, 81.2° (Epoch: 14 October)

Event Time Altitude Azimuth Distance (km) Brightness Sun altitude
Rises 19:32:41 0° 178° (S) 3,576 7.2 -17.7°
Reaches altitude 10° 19:35:10 10° 175° (S) 2,645 6.5 -18.1°
Maximum altitude 19:41:09 62° 96° (E) 1,059 4.4 -19.0°
Drops below altitude 10° 19:47:10 10° 18° (NNE) 2,657 6.9 -19.9°
Sets 19:49:40 0° 15° (NNE) 3,594 7.6 -20.2°
